| time (UTC) | temp F | wind direction | speed MPH | gust MPH | rain 1hr in | rain 24hr in | rain mn in | humidity % | barometer mb |
| 20260504021454 | 69 | 102 | 0.0 | 1.0 | 0.00 | 0.00 | 0.00 | 56 | 1018.0 |
| 20260504020954 | 69 | 195 | 0.0 | 2.0 | 0.00 | 0.00 | 0.00 | 55 | 1018.0 |
| 20260504020459 | 70 | 89 | 0.0 | 1.0 | 0.00 | 0.00 | 0.00 | 55 | 1018.0 |
| 20260504015955 | 70 | 121 | 0.0 | 0.0 | 0.00 | 0.00 | 0.00 | 54 | 1017.0 |
| 20260504015454 | 70 | 65 | 0.0 | 2.0 | 0.00 | 0.00 | 0.00 | 54 | 1017.0 |
| 20260504014954 | 71 | 48 | 1.0 | 1.0 | 0.00 | 0.00 | 0.00 | 53 | 1017.0 |
| 20260504014454 | 71 | 70 | 1.0 | 2.0 | 0.00 | 0.00 | 0.00 | 51 | 1017.0 |
| 20260504013954 | 71 | 95 | 0.0 | 2.0 | 0.00 | 0.00 | 0.00 | 51 | 1017.0 |
| 20260504013454 | 72 | 75 | 0.0 | 1.0 | 0.00 | 0.00 | 0.00 | 50 | 1017.0 |
| 20260504012954 | 72 | 91 | 0.0 | 1.0 | 0.00 | 0.00 | 0.00 | 49 | 1017.0 |
| 20260504012453 | 72 | 93 | 1.0 | 2.0 | 0.00 | 0.00 | 0.00 | 49 | 1017.0 |
| 20260504011954 | 73 | 97 | 0.0 | 1.0 | 0.00 | 0.00 | 0.00 | 49 | 1017.0 |
| 20260504011454 | 73 | 100 | 0.0 | 1.0 | 0.00 | 0.00 | 0.00 | 48 | 1017.0 |
| 20260504010955 | 73 | 183 | 0.0 | 1.0 | 0.00 | 0.00 | 0.00 | 47 | 1017.0 |
| 20260504010454 | 73 | 278 | 0.0 | 1.0 | 0.00 | 0.00 | 0.00 | 47 | 1017.0 |
| 20260504005955 | 74 | 201 | 0.0 | 2.0 | 0.00 | 0.00 | 0.00 | 47 | 1017.0 |
| 20260504005454 | 74 | 102 | 0.0 | 1.0 | 0.00 | 0.00 | 0.00 | 46 | 1017.0 |
| 20260504004956 | 74 | 58 | 1.0 | 2.0 | 0.00 | 0.00 | 0.00 | 46 | 1017.0 |
| 20260504004454 | 75 | 100 | 1.0 | 2.0 | 0.00 | 0.00 | 0.00 | 45 | 1017.0 |
| 20260504003954 | 75 | 187 | 2.0 | 4.0 | 0.00 | 0.00 | 0.00 | 45 | 1017.0 |
| 20260504003454 | 75 | 182 | 1.0 | 2.0 | 0.00 | 0.00 | 0.00 | 45 | 1017.0 |
| 20260504002954 | 76 | 165 | 1.0 | 4.0 | 0.00 | 0.00 | 0.00 | 44 | 1017.0 |
| 20260504002500 | 76 | 153 | 1.0 | 2.0 | 0.00 | 0.00 | 0.00 | 44 | 1017.0 |
| 20260504001954 | 76 | 162 | 1.0 | 3.0 | 0.00 | 0.00 | 0.00 | 43 | 1017.0 |
| 20260504001455 | 76 | 177 | 1.0 | 2.0 | 0.00 | 0.00 | 0.00 | 44 | 1017.0 |
| 20260504000954 | 76 | 85 | 2.0 | 5.0 | 0.00 | 0.00 | 0.00 | 43 | 1017.0 |
| 20260504000454 | 76 | 198 | 1.0 | 4.0 | 0.00 | 0.00 | 0.00 | 43 | 1017.0 |
| 20260503235954 | 76 | 90 | 1.0 | 4.0 | 0.00 | 0.00 | 0.00 | 42 | 1018.0 |
| 20260503235454 | 77 | 167 | 2.0 | 6.0 | 0.00 | 0.00 | 0.00 | 41 | 1017.0 |
| 20260503234954 | 77 | 103 | 2.0 | 2.0 | 0.00 | 0.00 | 0.00 | 42 | 1017.0 |
| 20260503234454 | 77 | 130 | 2.0 | 4.0 | 0.00 | 0.00 | 0.00 | 41 | 1017.0 |
| 20260503233954 | 77 | 111 | 2.0 | 3.0 | 0.00 | 0.00 | 0.00 | 41 | 1017.0 |
| 20260503233455 | 77 | 82 | 1.0 | 3.0 | 0.00 | 0.00 | 0.00 | 42 | 1017.0 |
| 20260503232954 | 77 | 177 | 1.0 | 3.0 | 0.00 | 0.00 | 0.00 | 42 | 1018.0 |
| 20260503232454 | 77 | 133 | 2.0 | 4.0 | 0.00 | 0.00 | 0.00 | 41 | 1018.0 |
| 20260503231954 | 77 | 79 | 1.0 | 3.0 | 0.00 | 0.00 | 0.00 | 41 | 1018.0 |
| 20260503231454 | 78 | 180 | 1.0 | 2.0 | 0.00 | 0.00 | 0.00 | 41 | 1018.0 |
| 20260503230956 | 78 | 126 | 3.0 | 7.0 | 0.00 | 0.00 | 0.00 | 40 | 1017.0 |
| 20260503230454 | 79 | 187 | 2.0 | 4.0 | 0.00 | 0.00 | 0.00 | 40 | 1017.0 |
| 20260503225953 | 80 | 73 | 2.0 | 4.0 | 0.00 | 0.00 | 0.00 | 40 | 1017.0 |
| 20260503225454 | 80 | 175 | 1.0 | 4.0 | 0.00 | 0.00 | 0.00 | 39 | 1017.0 |
| 20260503224954 | 80 | 113 | 2.0 | 4.0 | 0.00 | 0.00 | 0.00 | 39 | 1017.0 |
| 20260503224455 | 80 | 96 | 2.0 | 6.0 | 0.00 | 0.00 | 0.00 | 40 | 1017.0 |
| 20260503223954 | 80 | 157 | 3.0 | 6.0 | 0.00 | 0.00 | 0.00 | 39 | 1018.0 |
| 20260503223454 | 80 | 139 | 3.0 | 6.0 | 0.00 | 0.00 | 0.00 | 38 | 1018.0 |
| 20260503222954 | 80 | 194 | 2.0 | 5.0 | 0.00 | 0.00 | 0.00 | 38 | 1018.0 |
| 20260503222454 | 80 | 183 | 5.0 | 9.0 | 0.00 | 0.00 | 0.00 | 38 | 1018.0 |
| 20260503221954 | 80 | 129 | 1.0 | 4.0 | 0.00 | 0.00 | 0.00 | 38 | 1018.0 |
| 20260503221454 | 80 | 184 | 2.0 | 6.0 | 0.00 | 0.00 | 0.00 | 38 | 1018.0 |
| 20260503220954 | 81 | 95 | 3.0 | 6.0 | 0.00 | 0.00 | 0.00 | 38 | 1018.0 |
| 20260503220454 | 81 | 177 | 2.0 | 5.0 | 0.00 | 0.00 | 0.00 | 38 | 1018.0 |
| 20260503215954 | 81 | 166 | 2.0 | 4.0 | 0.00 | 0.00 | 0.00 | 39 | 1018.0 |
| 20260503215455 | 80 | 123 | 2.0 | 5.0 | 0.00 | 0.00 | 0.00 | 37 | 1018.0 |
| 20260503214955 | 80 | 137 | 2.0 | 4.0 | 0.00 | 0.00 | 0.00 | 40 | 1018.0 |
| 20260503214454 | 80 | 161 | 3.0 | 5.0 | 0.00 | 0.00 | 0.00 | 39 | 1018.0 |
| 20260503213955 | 80 | 130 | 2.0 | 4.0 | 0.00 | 0.00 | 0.00 | 38 | 1018.0 |
| 20260503213454 | 80 | 154 | 2.0 | 4.0 | 0.00 | 0.00 | 0.00 | 39 | 1018.0 |
| 20260503212954 | 79 | 205 | 1.0 | 3.0 | 0.00 | 0.00 | 0.00 | 39 | 1018.0 |
| 20260503212454 | 79 | 134 | 2.0 | 5.0 | 0.00 | 0.00 | 0.00 | 38 | 1019.0 |
| 20260503211954 | 79 | 141 | 2.0 | 4.0 | 0.00 | 0.00 | 0.00 | 38 | 1019.0 |
| 20260503211454 | 80 | 212 | 1.0 | 3.0 | 0.00 | 0.00 | 0.00 | 39 | 1019.0 |
| 20260503210954 | 80 | 200 | 3.0 | 6.0 | 0.00 | 0.00 | 0.00 | 38 | 1019.0 |
| 20260503210454 | 80 | 182 | 2.0 | 4.0 | 0.00 | 0.00 | 0.00 | 37 | 1019.0 |
| 20260503205954 | 81 | 185 | 3.0 | 6.0 | 0.00 | 0.00 | 0.00 | 38 | 1019.0 |
| 20260503205454 | 81 | 183 | 1.0 | 4.0 | 0.00 | 0.00 | 0.00 | 38 | 1019.0 |
| 20260503204954 | 81 | 123 | 2.0 | 3.0 | 0.00 | 0.00 | 0.00 | 37 | 1019.0 |
| 20260503204454 | 80 | 112 | 2.0 | 5.0 | 0.00 | 0.00 | 0.00 | 40 | 1019.0 |
| 20260503203954 | 79 | 190 | 2.0 | 5.0 | 0.00 | 0.00 | 0.00 | 41 | 1019.0 |
| 20260503203454 | 79 | 172 | 4.0 | 8.0 | 0.00 | 0.00 | 0.00 | 37 | 1019.0 |
| 20260503202954 | 80 | 193 | 3.0 | 6.0 | 0.00 | 0.00 | 0.00 | 38 | 1020.0 |
| 20260503202454 | 80 | 183 | 6.0 | 9.0 | 0.00 | 0.00 | 0.00 | 36 | 1019.0 |
| 20260503201953 | 80 | 147 | 1.0 | 3.0 | 0.00 | 0.00 | 0.00 | 40 | 1019.0 |
| 20260503201455 | 80 | 183 | 2.0 | 4.0 | 0.00 | 0.00 | 0.00 | 40 | 1019.0 |
| 20260503200954 | 80 | 193 | 5.0 | 7.0 | 0.00 | 0.00 | 0.00 | 41 | 1020.0 |
| 20260503200454 | 80 | 180 | 4.0 | 7.0 | 0.00 | 0.00 | 0.00 | 37 | 1020.0 |
| 20260503195955 | 80 | 191 | 4.0 | 9.0 | 0.00 | 0.00 | 0.00 | 38 | 1020.0 |
| 20260503195454 | 81 | 105 | 2.0 | 4.0 | 0.00 | 0.00 | 0.00 | 38 | 1020.0 |
| 20260503194953 | 81 | 146 | 2.0 | 6.0 | 0.00 | 0.00 | 0.00 | 39 | 1020.0 |
| 20260503194454 | 80 | 116 | 1.0 | 4.0 | 0.00 | 0.00 | 0.00 | 40 | 1020.0 |
| 20260503193954 | 80 | 196 | 3.0 | 5.0 | 0.00 | 0.00 | 0.00 | 40 | 1020.0 |
| 20260503193455 | 80 | 199 | 2.0 | 4.0 | 0.00 | 0.00 | 0.00 | 39 | 1020.0 |
| 20260503192954 | 79 | 178 | 3.0 | 5.0 | 0.00 | 0.00 | 0.00 | 41 | 1020.0 |
| 20260503192454 | 80 | 178 | 3.0 | 7.0 | 0.00 | 0.00 | 0.00 | 40 | 1020.0 |
| 20260503191954 | 80 | 120 | 2.0 | 4.0 | 0.00 | 0.00 | 0.00 | 39 | 1020.0 |
| 20260503191455 | 79 | 85 | 2.0 | 4.0 | 0.00 | 0.00 | 0.00 | 41 | 1020.0 |
| 20260503190954 | 79 | 85 | 2.0 | 4.0 | 0.00 | 0.00 | 0.00 | 40 | 1020.0 |
| 20260503190453 | 80 | 215 | 3.0 | 6.0 | 0.00 | 0.00 | 0.00 | 41 | 1020.0 |
| 20260503185954 | 79 | 173 | 2.0 | 4.0 | 0.00 | 0.00 | 0.00 | 42 | 1020.0 |
| 20260503185455 | 79 | 159 | 3.0 | 6.0 | 0.00 | 0.00 | 0.00 | 40 | 1020.0 |
| 20260503184954 | 79 | 194 | 3.0 | 4.0 | 0.00 | 0.00 | 0.00 | 43 | 1021.0 |
| 20260503184454 | 79 | 107 | 2.0 | 3.0 | 0.00 | 0.00 | 0.00 | 41 | 1021.0 |
| 20260503183954 | 79 | 61 | 2.0 | 6.0 | 0.00 | 0.00 | 0.00 | 41 | 1021.0 |
| 20260503183455 | 79 | 117 | 3.0 | 5.0 | 0.00 | 0.00 | 0.00 | 41 | 1021.0 |
| 20260503182954 | 79 | 189 | 4.0 | 9.0 | 0.00 | 0.00 | 0.00 | 40 | 1021.0 |
| 20260503182454 | 78 | 113 | 2.0 | 4.0 | 0.00 | 0.00 | 0.00 | 41 | 1021.0 |
| 20260503181954 | 78 | 135 | 2.0 | 4.0 | 0.00 | 0.00 | 0.00 | 39 | 1021.0 |
| 20260503181454 | 78 | 125 | 3.0 | 6.0 | 0.00 | 0.00 | 0.00 | 41 | 1021.0 |
| 20260503180954 | 78 | 194 | 5.0 | 8.0 | 0.00 | 0.00 | 0.00 | 41 | 1021.0 |
| 20260503180454 | 78 | 190 | 3.0 | 6.0 | 0.00 | 0.00 | 0.00 | 41 | 1021.0 |
| 20260503175954 | 77 | 189 | 3.0 | 8.0 | 0.00 | 0.00 | 0.00 | 43 | 1022.0 |
| 20260503175455 | 78 | 183 | 5.0 | 8.0 | 0.00 | 0.00 | 0.00 | 42 | 1022.0 |
| 20260503174954 | 78 | 194 | 4.0 | 8.0 | 0.00 | 0.00 | 0.00 | 41 | 1022.0 |
| 20260503174454 | 77 | 178 | 3.0 | 5.0 | 0.00 | 0.00 | 0.00 | 42 | 1022.0 |
| 20260503173954 | 77 | 178 | 4.0 | 7.0 | 0.00 | 0.00 | 0.00 | 42 | 1022.0 |
| 20260503173454 | 77 | 190 | 4.0 | 6.0 | 0.00 | 0.00 | 0.00 | 43 | 1022.0 |
| 20260503172954 | 77 | 187 | 2.0 | 5.0 | 0.00 | 0.00 | 0.00 | 42 | 1022.0 |
| 20260503172454 | 78 | 167 | 3.0 | 5.0 | 0.00 | 0.00 | 0.00 | 40 | 1022.0 |
| 20260503171954 | 78 | 198 | 2.0 | 4.0 | 0.00 | 0.00 | 0.00 | 44 | 1022.0 |
| 20260503171454 | 78 | 187 | 2.0 | 7.0 | 0.00 | 0.00 | 0.00 | 44 | 1022.0 |
| 20260503170954 | 78 | 191 | 1.0 | 3.0 | 0.00 | 0.00 | 0.00 | 42 | 1022.0 |
| 20260503170454 | 77 | 172 | 2.0 | 3.0 | 0.00 | 0.00 | 0.00 | 43 | 1022.0 |
| 20260503150954 | 71 | 212 | 2.0 | 3.0 | 0.00 | 0.00 | 0.00 | 58 | 1023.0 |
| 20260503150454 | 70 | 237 | 3.0 | 6.0 | 0.00 | 0.00 | 0.00 | 58 | 1023.0 |
| 20260503130953 | 57 | 68 | 1.0 | 2.0 | 0.00 | 0.00 | 0.00 | 83 | 1022.0 |
| 20260503130454 | 57 | 276 | 0.0 | 1.0 | 0.00 | 0.00 | 0.00 | 84 | 1022.0 |
| 20260503110454 | 53 | 112 | 0.0 | 1.0 | 0.00 | 0.00 | 0.00 | 91 | 1022.0 |
| 20260503090455 | 55 | 100 | 0.0 | 1.0 | 0.00 | 0.00 | 0.00 | 88 | 1021.0 |
| 20260503081454 | 54 | 99 | 0.0 | 1.0 | 0.00 | 0.00 | 0.00 | 92 | 1021.0 |
| 20260503080954 | 54 | 99 | 0.0 | 1.0 | 0.00 | 0.00 | 0.00 | 91 | 1022.0 |
| 20260503080454 | 54 | 101 | 0.0 | 1.0 | 0.00 | 0.00 | 0.00 | 91 | 1021.0 |
| 20260503072454 | 55 | 121 | 0.0 | 1.0 | 0.00 | 0.00 | 0.00 | 89 | 1022.0 |
| 20260503071954 | 55 | 86 | 0.0 | 1.0 | 0.00 | 0.00 | 0.00 | 89 | 1022.0 |
| 20260503071454 | 55 | 89 | 1.0 | 2.0 | 0.00 | 0.00 | 0.00 | 88 | 1022.0 |
| 20260503070954 | 55 | 100 | 0.0 | 1.0 | 0.00 | 0.00 | 0.00 | 87 | 1022.0 |
| 20260503070454 | 56 | 120 | 0.0 | 1.0 | 0.00 | 0.00 | 0.00 | 86 | 1022.0 |
| 20260503054954 | 57 | 110 | 0.0 | 2.0 | 0.00 | 0.00 | 0.00 | 84 | 1022.0 |
| 20260503054454 | 57 | 132 | 1.0 | 2.0 | 0.00 | 0.00 | 0.00 | 84 | 1022.0 |
| 20260503053954 | 57 | 101 | 0.0 | 1.0 | 0.00 | 0.00 | 0.00 | 85 | 1022.0 |
| 20260503053454 | 57 | 95 | 0.0 | 2.0 | 0.00 | 0.00 | 0.00 | 86 | 1022.0 |
| 20260503052954 | 56 | 98 | 1.0 | 2.0 | 0.00 | 0.00 | 0.00 | 87 | 1022.0 |
| 20260503052503 | 56 | 100 | 1.0 | 2.0 | 0.00 | 0.00 | 0.00 | 87 | 1022.0 |
| 20260503051954 | 56 | 127 | 0.0 | 1.0 | 0.00 | 0.00 | 0.00 | 87 | 1022.0 |
| 20260503051454 | 56 | 115 | 0.0 | 1.0 | 0.00 | 0.00 | 0.00 | 86 | 1022.0 |
| 20260503050954 | 56 | 112 | 0.0 | 1.0 | 0.00 | 0.00 | 0.00 | 87 | 1022.0 |
| 20260503050454 | 56 | 122 | 1.0 | 2.0 | 0.00 | 0.00 | 0.00 | 87 | 1022.0 |
| 20260503045954 | 57 | 96 | 1.0 | 2.0 | 0.00 | 0.00 | 0.00 | 87 | 1022.0 |
| 20260503045454 | 57 | 103 | 1.0 | 2.0 | 0.00 | 0.00 | 0.00 | 87 | 1022.0 |
| 20260503044955 | 57 | 113 | 1.0 | 2.0 | 0.00 | 0.00 | 0.00 | 87 | 1022.0 |
| 20260503044454 | 57 | 97 | 0.0 | 1.0 | 0.00 | 0.00 | 0.00 | 87 | 1022.0 |
| 20260503043956 | 57 | 101 | 0.0 | 2.0 | 0.00 | 0.00 | 0.00 | 87 | 1022.0 |
| 20260503043454 | 57 | 103 | 1.0 | 2.0 | 0.00 | 0.00 | 0.00 | 87 | 1022.0 |
| 20260503042954 | 57 | 102 | 1.0 | 2.0 | 0.00 | 0.00 | 0.00 | 87 | 1022.0 |
| 20260503042454 | 57 | 122 | 0.0 | 1.0 | 0.00 | 0.00 | 0.00 | 87 | 1022.0 |
| 20260503041954 | 57 | 93 | 0.0 | 1.0 | 0.00 | 0.00 | 0.00 | 87 | 1022.0 |
| 20260503041454 | 57 | 100 | 0.0 | 2.0 | 0.00 | 0.00 | 0.00 | 87 | 1022.0 |
| 20260503040954 | 58 | 104 | 1.0 | 2.0 | 0.00 | 0.00 | 0.00 | 86 | 1022.0 |
| 20260503040454 | 58 | 92 | 1.0 | 2.0 | 0.00 | 0.00 | 0.00 | 85 | 1022.0 |
| 20260503035954 | 58 | 126 | 1.0 | 2.0 | 0.00 | 0.00 | 0.00 | 84 | 1022.0 |
| 20260503035454 | 58 | 116 | 0.0 | 2.0 | 0.00 | 0.00 | 0.00 | 82 | 1022.0 |
| 20260503034954 | 58 | 109 | 0.0 | 2.0 | 0.00 | 0.00 | 0.00 | 82 | 1022.0 |
| 20260503034454 | 58 | 102 | 0.0 | 2.0 | 0.00 | 0.00 | 0.00 | 81 | 1022.0 |
| 20260503033954 | 59 | 109 | 1.0 | 2.0 | 0.00 | 0.00 | 0.00 | 82 | 1022.0 |
| 20260503033454 | 59 | 115 | 1.0 | 2.0 | 0.00 | 0.00 | 0.00 | 82 | 1022.0 |
| 20260503032954 | 59 | 120 | 1.0 | 2.0 | 0.00 | 0.00 | 0.00 | 81 | 1022.0 |
| 20260503032454 | 59 | 97 | 1.0 | 2.0 | 0.00 | 0.00 | 0.00 | 80 | 1022.0 |
| 20260503031954 | 59 | 91 | 1.0 | 2.0 | 0.00 | 0.00 | 0.00 | 80 | 1022.0 |
| 20260503031454 | 59 | 101 | 1.0 | 2.0 | 0.00 | 0.00 | 0.00 | 81 | 1022.0 |
| 20260503030954 | 60 | 111 | 1.0 | 2.0 | 0.00 | 0.00 | 0.00 | 81 | 1022.0 |
| 20260503030455 | 60 | 115 | 1.0 | 2.0 | 0.00 | 0.00 | 0.00 | 80 | 1022.0 |
| 20260503025954 | 60 | 106 | 1.0 | 2.0 | 0.00 | 0.00 | 0.00 | 78 | 1022.0 |
| 20260503025456 | 60 | 121 | 0.0 | 2.0 | 0.00 | 0.00 | 0.00 | 77 | 1022.0 |
| 20260503024954 | 61 | 116 | 1.0 | 2.0 | 0.00 | 0.00 | 0.00 | 76 | 1022.0 |
| 20260503024454 | 61 | 124 | 0.0 | 2.0 | 0.00 | 0.00 | 0.00 | 75 | 1021.0 |
| 20260503023953 | 61 | 103 | 1.0 | 2.0 | 0.00 | 0.00 | 0.00 | 74 | 1021.0 |
| 20260503023454 | 62 | 97 | 0.0 | 1.0 | 0.00 | 0.00 | 0.00 | 73 | 1021.0 |
| 20260503022954 | 62 | 98 | 1.0 | 2.0 | 0.00 | 0.00 | 0.00 | 71 | 1021.0 |
| 20260503022005 | 62 | 105 | 1.0 | 2.0 | 0.00 | 0.00 | 0.00 | 71 | 1021.0 |